Flag Weather past 2 weeks in Gitega, Burundi

Now
75 °F

Passing clouds.


Feels Like: 77 °F
Forecast: 56 / 78 °F
Wind: 3 mph from Southeast

Location: Kigali Airport

Current Time: Nov 24, 2014 at 10:42:49 AM

Latest Report: Nov 24, 2014 at 10:00 AM


Visibility: N/A

Pressure: 30.18 "Hg

Humidity: 74%

Dew point: 66 °F

Location of GitegaLocation

Historic Weather in Gitega — Graph

°F

Gitega temperature yesterday

Maximum temperature yesterday: 77 °F (at 2:00 PM)
Minimum temperature yesterday: 61 °F (at 6:00 AM)
Average temperature yesterday: 69 °F

Past Weeks' High & Low Weather Summary

 TemperatureHumidityPressure
High82 °F (Nov 9, 12:30 PM)100% (Nov 10, 5:00 AM)30.24 "Hg (Nov 10, 5:00 AM)
Low59 °F (Nov 16, 3:00 AM)45% (Nov 9, 4:30 PM)29.98 "Hg (Nov 17, 3:00 PM)
Average68 °F87%30.10 "Hg
* Reported Nov 9 10:00 AM — Nov 24 10:00 AM, Gitega, Weather by CustomWeather, © 2014

Note: Actual official high and low records may vary slightly from our data, if they occured in-between our weather recording intervals... More about our weather records

Advertising

Gitega weather history for previous 24 hours

 ConditionsComfort  
Time TempWeatherWind HumidityBarometerVisibility
10:00 AM
Nov 24
75 °FPassing clouds.3 mph74%30.18 "HgN/A
9:00 AM72 °FPassing clouds.3 mph83%30.18 "Hg5 mi
8:30 AM70 °FPassing clouds.No wind88%30.18 "Hg5 mi
8:00 AM68 °FPassing clouds.No wind88%30.18 "Hg5 mi
7:30 AM66 °FPassing clouds.No wind94%30.15 "Hg4 mi
7:00 AM64 °FPassing clouds.No wind100%30.12 "Hg4 mi
6:30 AM61 °FPassing clouds.No wind100%30.12 "Hg5 mi
6:00 AM61 °FPassing clouds.No wind100%30.09 "Hg5 mi
5:30 AM61 °FPassing clouds.No wind100%30.09 "HgN/A
5:00 AM61 °FPassing clouds.No wind100%30.09 "HgN/A
4:00 AM63 °FPassing clouds.3 mph100%30.09 "HgN/A
3:00 AM63 °FPassing clouds.3 mph100%30.09 "HgN/A
2:30 AM63 °FPassing clouds.3 mph100%30.09 "HgN/A
1:30 AM64 °FPassing clouds.No wind100%30.09 "HgN/A
1:00 AM64 °FPassing clouds.No wind100%30.12 "HgN/A
12:30 AM66 °FPassing clouds.5 mph94%30.12 "HgN/A
12:00 AM66 °FPassing clouds.3 mph94%30.12 "HgN/A
11:30 PM
Nov 23
66 °FPassing clouds.No wind94%30.12 "HgN/A
10:30 PM66 °FPassing clouds.3 mph94%30.15 "HgN/A
10:00 PM68 °FPassing clouds.3 mph88%30.15 "HgN/A
9:30 PM68 °FPassing clouds.3 mph88%30.15 "HgN/A
9:00 PM68 °FPassing clouds.3 mph88%30.15 "HgN/A
8:30 PM70 °FPassing clouds.3 mph78%30.12 "HgN/A
8:00 PM70 °FPassing clouds.3 mph78%30.12 "HgN/A
7:30 PM70 °FPassing clouds.No wind78%30.09 "HgN/A
7:00 PM72 °FPassing clouds.No wind73%30.09 "HgN/A
6:30 PM73 °FPassing clouds.3 mph69%30.09 "HgN/A
6:00 PM75 °FPassing clouds.3 mph65%30.09 "HgN/A
5:30 PM75 °FPartly sunny.3 mph65%30.07 "HgN/A
5:00 PM77 °FPartly sunny.3 mph61%30.07 "HgN/A
4:30 PM77 °FScattered clouds.No wind65%30.07 "HgN/A
4:00 PM77 °FScattered clouds.No wind61%30.07 "HgN/A
3:30 PM77 °FScattered clouds.3 mph65%30.09 "HgN/A
3:00 PM77 °FScattered clouds.5 mph65%30.09 "HgN/A
2:30 PM77 °FScattered clouds.3 mph69%30.09 "HgN/A
2:00 PM77 °FPartly sunny.3 mph65%30.12 "HgN/A
1:30 PM75 °FPartly sunny.5 mph69%30.15 "HgN/A
1:00 PM75 °FPartly sunny.3 mph74%30.15 "HgN/A
12:30 PM73 °FPartly sunny.7 mph74%30.18 "HgN/A
12:00 PM72 °FPartly sunny.6 mph83%30.18 "HgN/A
11:30 AM72 °FLight rain. Partly sunny.5 mph83%30.21 "HgN/A
11:00 AM72 °FPartly sunny.3 mph83%30.21 "HgN/A
10:30 AM72 °FPartly sunny.3 mph83%30.24 "HgN/A
10:00 AM70 °FPartly sunny.5 mph88%30.24 "HgN/A
Weather by CustomWeather, © 2014

See weather overviewHow to use our weather pages